Flag for Germany Weather past 2 weeks in Detmold, North Rhine-Westphalia, Germany

Now
63 °F

Low clouds.


Feels Like: 63 °F
Forecast: 52 / 60 °F
Wind: 1 mph from Southwest

Location: Bad Lippspringe

Current Time: Sep 20, 2014 at 9:00:20 AM

Latest Report: Sep 20, 2014 at 8:00 AM


Visibility: 1 mi

Pressure: 29.93 "Hg

Humidity: 96%

Dew point: 62 °F

Location of DetmoldLocation

Historic Weather in Detmold — Graph

°F

Detmold temperature yesterday

Maximum temperature yesterday: 73 °F (at 5:00 PM)
Minimum temperature yesterday: 60 °F (at 4:00 AM)
Average temperature yesterday: 65 °F

Past Weeks' High & Low Weather Summary

 TemperatureHumidityPressure
High79 °F (Sep 6, 3:00 PM)99% (Sep 8, 4:00 AM)30.23 "Hg (Sep 8, 4:00 AM)
Low44 °F (Sep 12, 5:00 AM)45% (Sep 6, 3:00 PM)29.85 "Hg (Sep 6, 6:00 PM)
Average62 °F82%30.03 "Hg
* Reported Sep 5 8:00 AM — Sep 20 8:00 AM, Detmold, Weather by CustomWeather, © 2014

Note: Actual official high and low records may vary slightly from our data, if they occured in-between our weather recording intervals... More about our weather records

Advertising

Detmold weather history for previous 24 hours

 ConditionsComfort  
Time TempWeatherWind HumidityBarometerVisibility
8:00 AM
Sep 20
63 °FLow clouds.1 mph96%29.93 "Hg1 mi
7:00 AM63 °FFog.1 mph96%29.92 "Hg1 mi
6:00 AM63 °FFog.1 mph96%29.91 "Hg2 mi
5:00 AM63 °FFog.1 mph96%29.92 "Hg1 mi
4:00 AM63 °FFog.2 mph95%29.91 "Hg2 mi
3:00 AM62 °FFog.1 mph97%29.92 "Hg2 mi
2:00 AM62 °FFog.1 mph96%29.92 "Hg2 mi
1:00 AM62 °FFog.1 mph98%29.92 "Hg1 mi
12:00 AM63 °FOvercast.1 mph96%29.92 "Hg3 mi
11:00 PM
Sep 19
63 °FOvercast.1 mph96%29.92 "Hg4 mi
10:00 PM63 °FOvercast.2 mph98%29.91 "Hg3 mi
9:00 PM63 °FHail. Overcast.2 mph97%29.92 "Hg0 mi
8:00 PM63 °FLight rain. Overcast.1 mph94%29.90 "Hg6 mi
7:00 PM65 °FLight rain. Overcast.6 mph87%29.90 "Hg4 mi
6:00 PM70 °FOvercast.3 mph78%29.86 "Hg6 mi
5:00 PM73 °FOvercast.2 mph72%29.86 "Hg7 mi
4:00 PM72 °FPassing clouds.2 mph71%29.88 "Hg6 mi
3:00 PM71 °FPartly sunny.3 mph76%29.88 "Hg6 mi
2:00 PM71 °FOvercast.2 mph75%29.88 "Hg6 mi
1:00 PM70 °FSunny.2 mph75%29.88 "Hg6 mi
12:00 PM69 °FOvercast.3 mph79%29.89 "Hg6 mi
11:00 AM64 °FOvercast.3 mph85%29.89 "Hg7 mi
10:00 AM63 °FPartly sunny.2 mph91%29.89 "Hg5 mi
9:00 AM64 °FLow clouds.2 mph87%29.89 "Hg6 mi
Weather by CustomWeather, © 2014

See weather overviewHow to use our weather pages